SCP
0 0 0 0 0 0 0 0 0 0 0 0 0 0 -0 0 0 0 0 0 0 0 0 0 0 0 0 0 0 0 1 1 0
0 0 1 1 1 0 0 0 0 0 0 0 0 0 0 0 0 0 0 0 0 0 0 0 0 0 0 0 0 0 0 0 0
0 1 1 1 1 1 0 0 0 0 0 0 0 0 0 0 0 0 0 1 0 1 0 0 0 1 1 0 0 0 0 0 0
1 1 1 1 1 0 0 1 1 1 0 0 0 0 0 0 0 0 0 1 0 1 1 0 0 0 1 0 0 0 0 0 0
1 1 1 0 0 1 0 0 0 0 0 0 0 0 0 0 0 0 1 0 0 -0 0 0 0 1 0 0 -0 0 0 0 0
1 1 1 0 0 0 0 0 0 0 0 1 0 0 1 1 1 0 1 0 0 -0 0 0 0 0 0 0 0 0 0 0 0
1 1 1 1 1 1 1 1 1 1 1 1 1 0 1 1 1 0 0 0 0 -0 -0 0 0 -0 0 0 0 0 0 0 0
1 1 1 1 1 0 0 0 0 1 0 1 2 1 1 1 1 0 0 -0 0 0 0 0 -0 0 0 0 0 0 0 0 0
1 1 0 0 0 0 0 0 0 0 0 0 1 1 1 1 1 1 0 0 -0 -0 -0 0 0 0 0 0 0 0 0 0 1
0 0 0 0 0 0 0 0 0 0 0 0 0 0 0 0 0 0 0 0 1 0 0 0 0 0 0 0 0 0 0 0 1
0 0 0 0 0 0 0 0 0 0 0 0 0 0 0 0 0 0 0 0 1 1 1 1 1 1 0 0 0 0 0 0 0
0 0 0 0 0 0 0 0 0 0 0 0 0 0 0 0 0 0 0 0 0 0 0 0 0 1 1 1 0 0 0 0 0
0 0 0 0 0 0 0 0 0 0 0 0 0 0 0 0 0 0 0 0 0 0 0 0 0 0 0 1 1 0 0 0 0
0 0 0 0 0 0 0 0 0 0 0 0 0 0 0 0 0 0 0 0 1 0 0 1 1 0 0 1 1 1 0 0 0
0 0 0 0 0 0 0 0 0 0 0 0 0 0 0 0 0 0 0 1 0 0 1 1 1 1 1 1 1 1 0 0 0
0 0 0 0 0 0 0 0 0 0 0 0 0 0 0 0 0 0 0 0 0 0 1 0 0 0 0 1 1 1 1 0 0
0 0 0 0 0 0 0 0 0 0 0 0 0 0 0 0 0 0 0 0 0 0 0 0 0 0 0 1 3 2 2 0 0
0 0 0 0 0 0 0 0 0 0 0 0 0 0 0 0 0 0 0 0 0 0 0 0 0 0 0 1 1 2 1 2 1
0 0 0 0 0 0 0 0 0 0 0 0 0 0 0 0 0 0 0 0 0 0 0 0 0 0 0 0 1 0 1 0 0
0 0 0 0 0 0 0 0 0 0 0 0 0 0 0 0 0 0 0 0 0 0 0 0 0 0 0 0 0 0 0 0 0
Wind_Speed_500mb
17 19 15 13 16 22 30 37 38 41 40 54 34 36 41 38 34 31 27 26 23 22 23 26 28 31 33 34 40 44 44 40 32
20 22 21 21 17 12 17 25 29 30 32 43 40 29 30 38 36 35 27 29 25 28 27 30 36 37 37 38 40 47 48 36 33
19 23 22 19 18 14 12 11 15 21 25 28 30 38 20 21 27 29 30 24 29 27 29 36 37 40 42 45 47 50 50 38 32
14 14 15 16 18 15 13 12 9 6 13 20 22 28 27 30 23 29 31 33 29 46 34 36 38 36 39 34 34 43 49 40 37
16 8 9 11 12 12 11 11 10 6 4 12 16 23 25 28 27 29 37 49 43 16 29 29 30 32 30 31 29 36 39 38 38
12 12 4 6 4 6 10 9 9 11 14 19 28 23 17 14 16 27 30 40 30 22 20 29 26 21 22 35 32 36 42 43 38
11 9 12 9 6 7 10 10 11 14 18 25 20 5 11 8 6 12 20 22 42 36 34 31 28 29 25 29 34 41 41 40 42
3 4 12 12 10 8 11 10 11 14 19 22 26 10 3 6 10 17 22 24 30 41 43 33 34 32 34 35 25 38 42 45 41
1 5 6 8 8 9 8 9 10 12 16 19 16 14 10 9 12 12 14 26 40 40 26 41 43 37 38 39 48 43 51 51 44
5 4 4 6 9 12 14 17 19 19 18 18 18 14 12 11 11 13 17 18 21 24 32 38 46 45 43 45 44 52 51 53 55
15 17 17 16 18 22 24 26 27 28 27 26 28 28 23 19 18 18 20 23 25 25 19 31 40 45 46 48 50 47 48 53 53
22 24 26 31 34 34 36 37 36 35 37 39 35 35 34 35 32 27 25 27 27 33 33 28 27 40 47 52 52 49 44 53 61
28 36 43 51 53 54 53 51 49 48 49 47 48 52 54 45 52 46 39 34 35 38 40 38 32 34 44 54 55 54 48 50 64
48 50 53 55 55 56 56 53 53 58 56 56 54 52 51 54 48 44 39 41 38 40 41 41 44 43 42 45 51 59 50 48 57
57 59 59 59 60 60 59 58 57 61 60 57 56 53 50 51 51 47 46 43 40 40 40 40 42 44 44 40 46 54 53 53 52
64 64 65 63 62 64 58 55 56 59 59 52 53 57 58 55 51 48 44 43 42 44 44 43 44 42 43 44 44 45 54 60 58
66 66 66 64 63 60 57 55 55 57 54 50 50 52 52 52 52 49 45 45 47 49 51 51 48 44 44 41 38 41 41 53 54
69 68 66 62 61 62 63 59 54 53 52 48 47 48 47 48 51 52 51 50 50 52 54 55 51 47 42 42 41 48 53 61 68
72 72 69 67 67 64 61 60 58 55 51 49 48 48 48 46 49 52 52 50 52 54 60 63 64 63 61 57 54 51 63 55 52
75 77 74 71 71 70 63 59 59 55 49 52 49 50 48 50 51 51 52 52 52 54 52 56 63 66 66 64 58 57 68 64 61
Wind_Direction_500mb
41 61 76 117 159 184 198 201 212 215 226 230 239 239 239 236 232 235 238 243 235 247 255 259 251 247 244 244 248 244 245 240 245
59 76 82 96 110 137 174 191 210 216 223 227 237 234 247 245 239 233 233 237 250 250 259 257 255 260 256 251 248 242 239 236 234
61 78 71 88 87 89 112 162 202 223 233 240 249 235 248 249 242 237 239 263 266 263 270 271 266 266 265 265 255 237 227 224 233
37 56 67 87 83 75 87 91 106 190 235 249 240 237 244 265 245 247 237 232 263 271 259 270 271 269 270 260 255 220 218 222 226
28 39 82 117 82 73 64 63 61 45 321 287 277 261 248 246 249 248 242 228 265 258 242 258 265 266 263 250 238 214 213 217 218
3 16 49 168 141 55 62 54 45 9 348 328 303 250 245 241 242 249 256 250 251 240 249 251 245 246 266 246 234 226 224 213 213
316 17 51 113 111 56 53 52 45 24 17 8 0 188 204 230 227 247 256 254 237 240 233 240 243 247 255 242 246 230 222 214 216
291 55 70 81 76 64 50 30 21 22 25 18 26 56 180 284 288 282 274 253 243 226 227 240 245 243 242 231 250 231 222 225 225
268 85 65 59 54 42 29 11 7 360 358 10 18 25 25 18 2 358 290 277 261 233 223 233 241 248 243 243 242 243 231 225 215
306 317 340 328 322 319 313 311 310 313 318 318 325 330 326 324 326 330 336 332 309 297 261 247 243 245 242 245 247 242 238 230 227
297 301 305 310 307 302 297 295 295 300 300 304 299 299 302 302 299 299 305 315 320 326 301 264 254 245 242 245 246 246 239 233 228
287 289 289 300 300 298 294 292 291 289 289 290 290 291 292 293 297 296 293 295 297 303 305 305 282 256 252 244 244 243 238 229 231
293 286 284 288 290 290 287 285 284 280 278 277 276 279 282 280 287 287 288 283 285 289 290 292 284 288 258 247 246 247 239 230 228
290 287 286 285 284 283 283 283 281 278 275 272 271 270 270 272 272 272 272 276 268 276 273 270 275 279 280 256 245 247 239 234 231
292 290 289 285 284 283 280 278 277 275 275 277 273 270 266 263 265 264 266 262 260 260 260 263 267 271 273 269 254 244 243 233 231
292 290 289 286 284 285 281 277 275 273 272 275 274 271 269 264 259 257 257 257 256 257 257 257 259 259 262 266 263 245 239 231 227
294 292 290 286 285 282 280 278 274 270 272 275 274 269 267 263 256 253 254 257 257 255 252 251 252 254 257 258 253 235 225 214 215
293 290 289 285 281 280 281 280 276 270 271 273 269 265 264 264 258 256 257 256 253 250 249 246 247 249 253 253 248 242 231 228 226
291 289 287 283 279 277 277 278 272 272 271 268 261 260 259 259 256 256 256 257 258 257 251 240 244 243 248 252 252 242 252 240 236
291 287 285 282 280 277 276 275 274 268 265 268 261 257 253 252 254 254 254 254 255 256 252 254 248 246 248 256 262 260 246 250 243
Wind_Speed_850mb
17 19 15 13 16 22 30 37 38 41 40 54 34 36 41 38 34 31 27 26 23 22 23 26 28 31 33 34 40 44 44 40 32
20 22 21 21 17 12 17 25 29 30 32 43 40 29 30 38 36 35 27 29 25 28 27 30 36 37 37 38 40 47 48 36 33
19 23 22 19 18 14 12 11 15 21 25 28 30 38 20 21 27 29 30 24 29 27 29 36 37 40 42 45 47 50 50 38 32
14 14 15 16 18 15 13 12 9 6 13 20 22 28 27 30 23 29 31 33 29 46 34 36 38 36 39 34 34 43 49 40 37
16 8 9 11 12 12 11 11 10 6 4 12 16 23 25 28 27 29 37 49 43 16 29 29 30 32 30 31 29 36 39 38 38
12 12 4 6 4 6 10 9 9 11 14 19 28 23 17 14 16 27 30 40 30 22 20 29 26 21 22 35 32 36 42 43 38
11 9 12 9 6 7 10 10 11 14 18 25 20 5 11 8 6 12 20 22 42 36 34 31 28 29 25 29 34 41 41 40 42
3 4 12 12 10 8 11 10 11 14 19 22 26 10 3 6 10 17 22 24 30 41 43 33 34 32 34 35 25 38 42 45 41
1 5 6 8 8 9 8 9 10 12 16 19 16 14 10 9 12 12 14 26 40 40 26 41 43 37 38 39 48 43 51 51 44
5 4 4 6 9 12 14 17 19 19 18 18 18 14 12 11 11 13 17 18 21 24 32 38 46 45 43 45 44 52 51 53 55
15 17 17 16 18 22 24 26 27 28 27 26 28 28 23 19 18 18 20 23 25 25 19 31 40 45 46 48 50 47 48 53 53
22 24 26 31 34 34 36 37 36 35 37 39 35 35 34 35 32 27 25 27 27 33 33 28 27 40 47 52 52 49 44 53 61
28 36 43 51 53 54 53 51 49 48 49 47 48 52 54 45 52 46 39 34 35 38 40 38 32 34 44 54 55 54 48 50 64
48 50 53 55 55 56 56 53 53 58 56 56 54 52 51 54 48 44 39 41 38 40 41 41 44 43 42 45 51 59 50 48 57
57 59 59 59 60 60 59 58 57 61 60 57 56 53 50 51 51 47 46 43 40 40 40 40 42 44 44 40 46 54 53 53 52
64 64 65 63 62 64 58 55 56 59 59 52 53 57 58 55 51 48 44 43 42 44 44 43 44 42 43 44 44 45 54 60 58
66 66 66 64 63 60 57 55 55 57 54 50 50 52 52 52 52 49 45 45 47 49 51 51 48 44 44 41 38 41 41 53 54
69 68 66 62 61 62 63 59 54 53 52 48 47 48 47 48 51 52 51 50 50 52 54 55 51 47 42 42 41 48 53 61 68
72 72 69 67 67 64 61 60 58 55 51 49 48 48 48 46 49 52 52 50 52 54 60 63 64 63 61 57 54 51 63 55 52
75 77 74 71 71 70 63 59 59 55 49 52 49 50 48 50 51 51 52 52 52 54 52 56 63 66 66 64 58 57 68 64 61
Wind_Direction_850mb
41 61 76 117 159 184 198 201 212 215 226 230 239 239 239 236 232 235 238 243 235 247 255 259 251 247 244 244 248 244 245 240 245
59 76 82 96 110 137 174 191 210 216 223 227 237 234 247 245 239 233 233 237 250 250 259 257 255 260 256 251 248 242 239 236 234
61 78 71 88 87 89 112 162 202 223 233 240 249 235 248 249 242 237 239 263 266 263 270 271 266 266 265 265 255 237 227 224 233
37 56 67 87 83 75 87 91 106 190 235 249 240 237 244 265 245 247 237 232 263 271 259 270 271 269 270 260 255 220 218 222 226
28 39 82 117 82 73 64 63 61 45 321 287 277 261 248 246 249 248 242 228 265 258 242 258 265 266 263 250 238 214 213 217 218
3 16 49 168 141 55 62 54 45 9 348 328 303 250 245 241 242 249 256 250 251 240 249 251 245 246 266 246 234 226 224 213 213
316 17 51 113 111 56 53 52 45 24 17 8 0 188 204 230 227 247 256 254 237 240 233 240 243 247 255 242 246 230 222 214 216
291 55 70 81 76 64 50 30 21 22 25 18 26 56 180 284 288 282 274 253 243 226 227 240 245 243 242 231 250 231 222 225 225
268 85 65 59 54 42 29 11 7 360 358 10 18 25 25 18 2 358 290 277 261 233 223 233 241 248 243 243 242 243 231 225 215
306 317 340 328 322 319 313 311 310 313 318 318 325 330 326 324 326 330 336 332 309 297 261 247 243 245 242 245 247 242 238 230 227
297 301 305 310 307 302 297 295 295 300 300 304 299 299 302 302 299 299 305 315 320 326 301 264 254 245 242 245 246 246 239 233 228
287 289 289 300 300 298 294 292 291 289 289 290 290 291 292 293 297 296 293 295 297 303 305 305 282 256 252 244 244 243 238 229 231
293 286 284 288 290 290 287 285 284 280 278 277 276 279 282 280 287 287 288 283 285 289 290 292 284 288 258 247 246 247 239 230 228
290 287 286 285 284 283 283 283 281 278 275 272 271 270 270 272 272 272 272 276 268 276 273 270 275 279 280 256 245 247 239 234 231
292 290 289 285 284 283 280 278 277 275 275 277 273 270 266 263 265 264 266 262 260 260 260 263 267 271 273 269 254 244 243 233 231
292 290 289 286 284 285 281 277 275 273 272 275 274 271 269 264 259 257 257 257 256 257 257 257 259 259 262 266 263 245 239 231 227
294 292 290 286 285 282 280 278 274 270 272 275 274 269 267 263 256 253 254 257 257 255 252 251 252 254 257 258 253 235 225 214 215
293 290 289 285 281 280 281 280 276 270 271 273 269 265 264 264 258 256 257 256 253 250 249 246 247 249 253 253 248 242 231 228 226
291 289 287 283 279 277 277 278 272 272 271 268 261 260 259 259 256 256 256 257 258 257 251 240 244 243 248 252 252 242 252 240 236
291 287 285 282 280 277 276 275 274 268 265 268 261 257 253 252 254 254 254 254 255 256 252 254 248 246 248 256 262 260 246 250 243